AirNav   Air Wisconsin pilot careers
 
 444 users online  

XS37 Police Heliport
Pasadena, Texas, USA

GOING TO PASADENA?


FAA INFORMATION EFFECTIVE 29 MARCH 2018

Location

FAA Identifier: XS37
Lat/Long: 29-41-31.8240N / 095-11-45.7600W
29-41.530400N / 095-11.762667W
29.6921733 / -95.1960444
(estimated)
Elevation: 55 ft. / 17 m (estimated)
Variation: 06E (1985)
From city: 4 miles NE of PASADENA, TX
(LCTD 4NM NE OF GEONA AND 5NM NNW OF ELLINGTON FIELD.)
Time zone: UTC -5 (UTC -6 during Standard Time)
Zip code: 77506

Heliport Operations

Heliport use: Private use. Permission required prior to landing
Activation date: 10/1974
Control tower: no
ARTCC: HOUSTON CENTER
FSS: MONTGOMERY COUNTY FLIGHT SERVICE STATION
FOR FP FILING CALL CXO FSS 1-800-833-5602.
Attendance: UNATNDD
Wind indicator: no
Segmented circle: no

Heliport Communications

WX ASOS at HOU (5 nm SW): PHONE 713-847-1462
WX ASOS at LVJ (11 nm S): 118.525 (281-992-1853)
WX AWOS-3 at AXH (18 nm SW): 123.625 (281-431-6572)
WX ASOS at IAH (19 nm NW): PHONE 281-443-6397

Nearby radio navigation aids

VOR radial/distance  VOR name  Freq  Var
HUBr057/4.7HOBBY VOR/DME117.1005E
IAHr149/17.7HUMBLE VORTAC116.6005E
MHFr284/25.0TRINITY VOR/DME113.6007E
VUHr320/30.6SCHOLES VOR/DME113.0006E

 
NDB name  Hdg/Dist  Freq  Var  ID
NIXIN172/18.132605EBVP -... ...- .--.
GALVESTON305/31.520608EGLS --. .-.. ...

Heliport Services

Airframe service: NONE
Powerplant service: NONE

Runway Information

Helipad H1

Dimensions: 30 x 30 ft. / 9 x 9 m
Surface: concrete
Traffic pattern: leftleft

Heliport Ownership and Management from official FAA records

Ownership: Publicly-owned
Owner: CITY OF PASADENA
Phone 713-477-1221
Manager: LT P.D. COBB
PO BOX 3209
PASADENA, TX 77502
Phone 713-477-1221

Additional Remarks

A52 LIGHTED 200' RADIO TOWER (NO WIRES) 150' SSW OF HELIPAD.
THIS IS RESTRICTED TO POLICE AGENCY USE.

Instrument Procedures

There are no published instrument procedures at XS37.

Some nearby airports with instrument procedures:

KHOU - William P Hobby Airport (5 nm SW)
KEFD - Ellington Airport (5 nm S)
T41 - La Porte Municipal Airport (7 nm E)
KLVJ - Pearland Regional Airport (11 nm S)
KHPY - Baytown Airport (14 nm NE)
KAXH - Houston Southwest Airport (18 nm SW)
54T - RWJ Airpark (19 nm E)
KIAH - George Bush Intercontinental/Houston Airport (19 nm NW)
 
Loc | Ops | Rwys | IFR | FBO | Links
Com | Nav | Svcs | Stats | Notes

AirNav Hotels Sweepstakes
 
Area around XS37 (Police Heliport)
 
Road maps at: MapQuest Bing Google
 
Aerial photo
No photo
 
Sectional chart

 
Airport distance calculator
Flying to Police Heliport? Find the distance to fly.

From to XS37

Sunrise and sunset
Times for 20-Apr-2018
 Local
(UTC-5)
 Zulu
(UTC)
Morning civil twilight06:2511:25
Sunrise06:5011:50
Sunset19:5000:50
Evening civil twilight20:1401:14

Current date and time
Zulu (UTC)  20-Apr-2018 05:51:02
Local (UTC-5)  20-Apr-2018 00:51:02
 
METAR
KEFD 
6nm S 
200450Z 04004KT 10SM SCT250 17/07 A3023
KHOU 
6nm SW 
200453Z 04008KT 10SM BKN250 17/06 A3021 RMK AO2 SLP235 T01670061
KLVJ 
11nm S 
200453Z AUTO 05004KT 10SM CLR 16/08 A3023 RMK AO2 SLP235 T01610083
KAXH 
18nm SW 
200535Z AUTO 07003KT 10SM CLR 15/08 A3022 RMK AO2 T01510075
TAF
KEFD 
6nm S 
200400Z 2004/2110 04006KT 9999 FEW150 QNH3020INS BECMG 2013/2014 07012G18KT 9999 FEW150 QNH3015INS BECMG 2023/2024 11012KT 9999 SCT150 QNH3004INS TX21/2021Z TN12/2012Z
KHOU 
6nm SW 
200300Z 2003/2024 04008KT P6SM SCT250 FM201500 09012KT P6SM SCT250
NOTAMs
Click for the latest NOTAMs
NOTAMs are issued by the DoD/FAA and will open in a separate window not controlled by AirNav.

 

 
 

Would you like to see your business listed on this page?

 If your business provides an interesting product or service to pilots, flight crews, aircraft, or users of the Police Heliport, you should consider listing it here.  To start the listing process, click on the button below
 
Add a business
 

Other Pages about Police Heliport

Update a link
 
Copyright © AirNav, LLC. All rights reserved. Privacy Policy  Contact